Regional Weather Roundup
Issued by NWS Goodland, KS

Home | Current Version | Previous Version | Text Only | Print | Product List | Glossary Off
Versions: 1 2 3 4 5 6 7 8 9 10 11 12 13 14 15 16 17 18 19 20 21 22 23 24 25 26 27 28 29 30 31 32 33 34 35 36 37 38 39 40 41 42 43 44 45 46 47 48 49 50

000
ASUS43 KGLD 240308
RWRGLD

GOODLAND FORECAST AREA HOURLY WEATHER ROUNDUP
NATIONAL WEATHER SERVICE GOODLAND KS
900 PM MDT SAT MAY 23 2015

...OFFICIAL OBSERVATIONS...

CITY           SKY/WX    TMP DP  RH WIND       PRES   REMARKS
GOODLAND KS    CLOUDY    54  51  90 CALM      29.89R
HILL CITY KS   LGT RAIN  58  57  97 E8        29.94R FOG
IMPERIAL NEB   CLOUDY    57  54  89 E17       29.92F
MCCOOK NEB     CLOUDY    58  55  90 E12       29.94R
AKRON CO       CLOUDY    50  48  93 NE6       29.91R
BURLINGTON CO  CLOUDY    51  48  89 E5        29.88F
LIMON CO       PTCLDY    46  42  86 SW5       29.94R
$$

...UNOFFICIAL OBSERVATIONS...

CITY           SKY/WX    TMP DP  RH WIND       PRES   REMARKS
GOVE KS          N/A     58  32  37 MISG        N/A
LENORA KS        N/A     56  32  40 MISG        N/A
SHARON SPRINGS   N/A     55  53  93 MISG        N/A
TRENTON NEB      N/A     57  32  39 E13         N/A
KIT CARSON CO    N/A     51  47  88 MISG        N/A
$$


USA.gov is the U.S. government's official web portal to all federal, state and local government web resources and services.